Location: Unspecified
(0.0000°N, 0.0000°E)
Time: 10:21:10
(UTC+00:00)

AO-7 - Pass Details

Date: 05 October 2021
Orbit: 1439 x 1459 km, 101.9° (Epoch: 23 October)

Event Time Altitude Azimuth Distance (km) Brightness Sun altitude
Rises 03:43:51 0° 15° (NNE) 4,518 ? -31.0°
Reaches altitude 10° 03:46:37 10° 16° (NNE) 3,541 ? -30.3°
Maximum altitude 03:54:53 89° 290° (WNW) 1,442 ? -28.3°
Drops below altitude 10° 04:03:11 10° 196° (SSW) 3,554 ? -26.2°
Sets 04:05:58 0° 196° (SSW) 4,536 ? -25.5°
